International Skating Union - Official Site

ISU World Single Distances Championships 2017
February 9-12,2017

Draw | Lap Times | Index

Referee: Bjørn  PETTERSEN  (NOR)
Starter: Garth  LINDER  (USA)
StartTime: EndTime: Air Temp: Ice Temp: Humidity:
17:30 18:19 15℃ -9.3℃ 34%
Result 5000m Ladies
Rankings as of Feb 12 2017 8:48PM
Rank: No.: Name: Nation: Time: Behind:
1 121 Martina  Sáblíková CZE CZE 6:52.38200m - 20.80 - (20.8)
600m - 52.89 - (32.0)
1000m - 1:25.74 - (32.8)
1400m - 1:58.92 - (33.1)
1800m - 2:31.83 - (32.9)
2200m - 3:04.52 - (32.6)
2600m - 3:36.92 - (32.4)
3000m - 4:09.26 - (32.3)
3400m - 4:41.63 - (32.3)
3800m - 5:13.96 - (32.3)
4200m - 5:46.66 - (32.7)
4600m - 6:19.32 - (32.6)
5000m - 6:52.38 - (33.0)
2 131 Claudia  Pechstein GER GER 6:53.93200m - 20.88 - (20.8)
600m - 53.37 - (32.4)
1000m - 1:26.25 - (32.8)
1400m - 1:59.11 - (32.8)
1800m - 2:31.97 - (32.8)
2200m - 3:04.64 - (32.6)
2600m - 3:37.54 - (32.9)
3000m - 4:10.35 - (32.8)
3400m - 4:43.24 - (32.8)
3800m - 5:16.12 - (32.8)
4200m - 5:49.16 - (33.0)
4600m - 6:21.71 - (32.5)
5000m - 6:53.93 - (32.2)
1.55
3 105 Ivanie  Blondin CAN CAN 6:57.14200m - 20.79 - (20.7)
600m - 53.15 - (32.3)
1000m - 1:26.06 - (32.9)
1400m - 1:59.11 - (33.0)
1800m - 2:31.96 - (32.8)
2200m - 3:04.90 - (32.9)
2600m - 3:37.66 - (32.7)
3000m - 4:10.46 - (32.8)
3400m - 4:43.41 - (32.9)
3800m - 5:16.58 - (33.1)
4200m - 5:49.74 - (33.1)
4600m - 6:23.19 - (33.4)
5000m - 6:57.14 - (33.9)
4.76
4 176 Anna  Yurakova RUS RUS 6:57.27200m - 21.13 - (21.1)
600m - 53.68 - (32.5)
1000m - 1:26.49 - (32.8)
1400m - 1:59.25 - (32.7)
1800m - 2:31.83 - (32.5)
2200m - 3:04.76 - (32.9)
2600m - 3:37.23 - (32.4)
3000m - 4:10.15 - (32.9)
3400m - 4:43.26 - (33.1)
3800m - 5:16.48 - (33.2)
4200m - 5:49.73 - (33.2)
4600m - 6:23.48 - (33.7)
5000m - 6:57.27 - (33.7)
4.89
5 149 Antoinette  de Jong NED NED 6:59.33200m - 20.68 - (20.6)
600m - 53.81 - (33.1)
1000m - 1:26.51 - (32.7)
1400m - 1:59.09 - (32.5)
1800m - 2:31.95 - (32.8)
2200m - 3:04.84 - (32.8)
2600m - 3:37.77 - (32.9)
3000m - 4:10.79 - (33.0)
3400m - 4:44.23 - (33.4)
3800m - 5:17.73 - (33.5)
4200m - 5:51.26 - (33.5)
4600m - 6:25.20 - (33.9)
5000m - 6:59.33 - (34.1)
6.95
6 110 Isabelle  Weidemann CAN CAN 6:59.75200m - 21.51 - (21.5)
600m - 54.68 - (33.1)
1000m - 1:27.70 - (33.0)
1400m - 2:00.84 - (33.1)
1800m - 2:34.15 - (33.3)
2200m - 3:07.37 - (33.2)
2600m - 3:40.60 - (33.2)
3000m - 4:13.91 - (33.3)
3400m - 4:47.03 - (33.1)
3800m - 5:20.20 - (33.1)
4200m - 5:53.41 - (33.2)
4600m - 6:26.61 - (33.2)
5000m - 6:59.75 - (33.1)
7.37
7 152 Carien  Kleibeuker NED NED 6:59.79200m - 21.39 - (21.3)
600m - 53.62 - (32.2)
1000m - 1:25.67 - (32.0)
1400m - 1:57.95 - (32.2)
1800m - 2:30.64 - (32.6)
2200m - 3:03.85 - (33.2)
2600m - 3:37.23 - (33.3)
3000m - 4:11.03 - (33.8)
3400m - 4:44.95 - (33.9)
3800m - 5:18.91 - (33.9)
4200m - 5:52.90 - (33.9)
4600m - 6:26.63 - (33.7)
5000m - 6:59.79 - (33.1)
7.41
8 130 Bente  Kraus GER GER 7:00.62200m - 20.98 - (20.9)
600m - 53.93 - (32.9)
1000m - 1:27.04 - (33.1)
1400m - 2:00.16 - (33.1)
1800m - 2:33.16 - (33.0)
2200m - 3:06.33 - (33.1)
2600m - 3:39.52 - (33.1)
3000m - 4:12.82 - (33.3)
3400m - 4:46.16 - (33.3)
3800m - 5:19.72 - (33.5)
4200m - 5:53.58 - (33.8)
4600m - 6:27.38 - (33.8)
5000m - 7:00.62 - (33.2)
8.24
9 175 Natalia  Voronina RUS RUS 7:02.94200m - 20.70 - (20.7)
600m - 53.53 - (32.8)
1000m - 1:26.71 - (33.1)
1400m - 1:59.94 - (33.2)
1800m - 2:33.21 - (33.2)
2200m - 3:06.65 - (33.4)
2600m - 3:40.16 - (33.5)
3000m - 4:13.62 - (33.4)
3400m - 4:47.32 - (33.7)
3800m - 5:21.15 - (33.8)
4200m - 5:55.05 - (33.9)
4600m - 6:29.15 - (34.1)
5000m - 7:02.94 - (33.8)
10.56
10 104 Marina  Zueva BLR BLR 7:03.40200m - 21.04 - (21.0)
600m - 53.68 - (32.6)
1000m - 1:27.71 - (34.0)
1400m - 2:01.37 - (33.6)
1800m - 2:34.49 - (33.1)
2200m - 3:07.74 - (33.2)
2600m - 3:41.11 - (33.3)
3000m - 4:14.76 - (33.6)
3400m - 4:48.51 - (33.7)
3800m - 5:22.41 - (33.9)
4200m - 5:56.39 - (33.9)
4600m - 6:30.12 - (33.7)
5000m - 7:03.40 - (33.2)
11.02
11 180 Mia  Manganello USA USA 7:10.77200m - 20.94 - (20.9)
600m - 53.54 - (32.6)
1000m - 1:27.09 - (33.5)
1400m - 2:00.13 - (33.0)
1800m - 2:33.90 - (33.7)
2200m - 3:07.63 - (33.7)
2600m - 3:41.77 - (34.1)
3000m - 4:16.18 - (34.4)
3400m - 4:50.76 - (34.5)
3800m - 5:25.70 - (34.9)
4200m - 6:00.43 - (34.7)
4600m - 6:35.47 - (35.0)
5000m - 7:10.77 - (35.3)
18.39
12 102 Jelena  Peeters BEL BEL 7:14.68200m - 20.86 - (20.8)
600m - 54.36 - (33.5)
1000m - 1:28.28 - (33.9)
1400m - 2:02.50 - (34.2)
1800m - 2:36.31 - (33.8)
2200m - 3:10.53 - (34.2)
2600m - 3:44.44 - (33.9)
3000m - 4:18.63 - (34.1)
3400m - 4:53.13 - (34.5)
3800m - 5:27.73 - (34.6)
4200m - 6:02.79 - (35.0)
4600m - 6:38.31 - (35.5)
5000m - 7:14.68 - (36.3)
22.30